This is the latest recevied weather packets stored in our database for station/object SP9MUF-14. If no packets are shown the sender has not sent any weather packets the latest 10 day(s).
| Time | Temp. | Humidity | Pressure | Rain* | Wind** | Luminosity | Snow |
|---|---|---|---|---|---|---|---|
| 1787581638 | 22.78° C | 38% | 1020.5 hPa | 0 mm | - | 278 W/m² | - |
| 1787581336 | 21.67° C | 38% | 1020.4 hPa | 0 mm | - | 288 W/m² | - |
| 1787581034 | 22.78° C | 38% | 1020.3 hPa | 0 mm | - | 306 W/m² | - |
| 1787580731 | 22.78° C | 38% | 1020.3 hPa | 0 mm | - | 320 W/m² | - |
| 1787580124 | 22.78° C | 38% | 1020.4 hPa | 0 mm | - | 348 W/m² | - |
| 1787579822 | 21.67° C | 38% | 1020.5 hPa | 0 mm | - | 359 W/m² | - |
| 1787579519 | 21.67° C | 39% | 1020.6 hPa | 0 mm | - | 365 W/m² | - |
| 1787579217 | 22.78° C | 38% | 1020.4 hPa | 0 mm | - | 383 W/m² | - |
| 1787578915 | 22.78° C | 38% | 1020.5 hPa | 0 mm | - | 390 W/m² | - |
| 1787578612 | 22.78° C | 39% | 1020.5 hPa | 0 mm | - | 412 W/m² | - |
| 1787578310 | 22.78° C | 39% | 1020.5 hPa | 0 mm | - | 440 W/m² | - |
| 1787578008 | 21.67° C | 40% | 1020.5 hPa | 0 mm | - | 453 W/m² | - |
| 1787577706 | 20.56° C | 41% | 1020.7 hPa | 0 mm | - | 473 W/m² | - |
| 1787577101 | 20.56° C | 41% | 1020.8 hPa | 0 mm | - | 154 W/m² | - |
| 1787576798 | 21.67° C | 42% | 1020.7 hPa | 0 mm | - | 496 W/m² | - |
| 1787576496 | 21.67° C | 41% | 1020.8 hPa | 0 mm | - | 426 W/m² | - |
| 1787575890 | 20.56° C | 43% | 1020.9 hPa | 0 mm | - | 536 W/m² | - |
| 1787575588 | 20.56° C | 43% | 1020.9 hPa | 0 mm | - | 131 W/m² | - |
| 1787575286 | 20.56° C | 43% | 1021 hPa | 0 mm | - | 127 W/m² | - |
| 1787574984 | 20.56° C | 41% | 1020.9 hPa | 0 mm | - | 137 W/m² | - |
| 1787574681 | 20.56° C | 43% | 1021 hPa | 0 mm | - | 491 W/m² | - |
| 1787574379 | 20.56° C | 42% | 1021 hPa | 0 mm | - | 515 W/m² | - |
| 1787573775 | 20.56° C | 44% | 1021 hPa | 0 mm | - | 167 W/m² | - |
| 1787572868 | 21.67° C | 42% | 1020.9 hPa | 0 mm | - | 645 W/m² | - |
| 1787572565 | 20.56° C | 44% | 1021 hPa | 0 mm | - | 671 W/m² | - |
* Rain latest hour (hover to see other rain measurements)
** Current wind speed in m/s (hover to see current wind gust speed)